Погода в Жанхотеко

Россия / Кабардино-Балкарская Республика     43°33′42″N   43°12′26″E
темп.,
°C
ветер,
м/с
пор.,
м/с
влажн.,
%
обл.,
%
осадки,
мм/ч
давл.,
гПа
погр.,
м
16 июня, ср
ср1600:00+12юз44863 0.0 101343
03:00+12ююз338152 0.0 101341
06:00+15ю228378 0.0 101160
09:00+20в336957 0.0 1009982
12:00+19всв438390 0.1 1010677
15:00+17всв2296100 0.5 1010294
18:00+17в129885 0.4 1009168
21:00+15ююз329615 0.4 100934
17 июня, чт
чт1700:00+14ююз32890 0.0 100731
03:00+13юз45780 0.0 100648
06:00+16юз46700 0.0 100582
09:00+21св31600 0.0 1006617
12:00+20всв338557 1.8 1009667
15:00+15ссв239699 5.3 1013209
18:00+15сз129593 1.3 101563
21:00+14ююз229096 1.7 101635
18 июня, пт
пт1800:00+12всв1110085 0.4 101936
03:00+13юв119798 0.8 101829
06:00+12вюв1197100 0.2 101960
09:00+14всв117973 0.3 1019549
12:00+17св336370 0.1 10181104
15:00+17св3371100 0.1 1018817
18:00+14вюв1186100 0.0 101977
21:00+12ю229336 0.0 102030
19 июня, сб
сб1900:00+12ююз32920 0.0 101931
03:00+12ю32880 0.0 101931
06:00+14ю228499 0.0 101872
09:00+20в236373 0.0 1016814
12:00+22всв446074 0.0 10151174
15:00+19всв347998 0.1 1015769
18:00+19вюв238037 0.1 1015535
21:00+16ю228710 0.1 101627
20 июня, вс
вс2000:00+13ююз22860 0.0 101616
03:00+14ююз33550 0.0 101536
06:00+16ююз22627 0.0 101428
09:00+22всв22544 0.0 1013479
12:00+24св43560 0.0 1013861
15:00+23св426840 0.1 1014863
18:00+21св217955 0.1 1015453
21:00+17всв119548 0.3 101635